Location: Beuerbach
(48.1459°N, 10.9174°E)
Time: 02:40:07
(UTC+00:00)

CZ-2C R/B - Pass Details

Date: 23 May 2024
Orbit: 784 x 868 km, 98.3° (Epoch: 19 June)

Event Time Altitude Azimuth Distance (km) Brightness Sun altitude
Exits shadow 02:29:17 10° 217° (SW) 2,336 4.3 -8.4°
Maximum altitude 02:33:18 23° 268° (W) 1,627 3.8 -7.9°
Drops below altitude 10° 02:37:22 10° 320° (NW) 2,356 5.1 -7.4°
Sets 02:40:12 0° 335° (NNW) 3,297 6.0 -7.1°
